星链-11323 (STARLINK-11323)

导读

STARLINK-11323是美国SpaceX星链星座中的一颗卫星,于2024年10月15日发射入轨,属于星链低轨互联网星座扩容任务的一部分。星链星座旨在为全球提供高速低延迟宽带互联网服务,该卫星延续星链标准设计,服务全球偏远地区网络覆盖,支撑星座全球联网的部署目标。

Basic Information
目录编号:
61533
目录名称:
STARLINK-11323
国际标识:
2024-184B
轨道中心:
EARTH
卫星名称:
星链-11323
卫星全名:
星链-11323 (STARLINK-11323)
卫星状态:
在轨 (已飞行690 天)
发射日期:
2024-10-15 UTC
国别 :
美国 (US)
星等 :
--
Orbit Information
数据来源 国际轨道数据 AOE轨道数据
星历时间 2026-09-04T20:15:57+0800
1天前
查看轨道信息
2026-09-03T12:00:00+0800
2天前
查看轨道信息
半长轴 6737.843km 6737.822km
偏心率 0.0001101 0.0001259
轨道倾角 53.160° 53.158°
近地点辐角 108.109° 80.288°
升交点赤经 74.711° 81.338°
平近点角 252.005° 238.276°
近地点 358.964km 358.836km
远地点 360.448km 360.534km
周期 91.736分钟 91.736分钟
每日圈数 15.697174 15.697246
Detailed Information
固有亮度:
5
最大亮度:
2.5
卫星平台:
Starlink V1.0
覆盖范围:
全球
运营商:
太空探索技术公司
运营商所在国:
美国
制造商(研发单位):
太空探索技术公司
制造商所在国:
美国
使用方式:
暂无
Satellite Introduction
Starlink 计划是 SpaceX 推出的全球卫星互联网项目,通过发射低轨道卫星,为全球尤其是偏远地区提供高速、低延迟的互联网服务。自 2019 年起,Starlink 已部署数千颗卫星,旨在缩小全球数字鸿沟,推动互联网普及。该项目还为军事、航空等行业提供通信支持,带来广泛经济效益。
2D Orbit Map
3D Orbit Map
Orbit Altitude Analysis Chart
Orbit Inclination Analysis Chart
Orbit Comprehensive Analysis Chart
View Comprehensive Chart
Conjunction Data List
Event ID Objects TCA Miss Dist (km) Collision Risk Probability Collision Risk Index (CRI) Action
CDM_260902-075605-829606-153321
2026-09-02T
07:56:29+0000
1.449 km
极远距离
6.382052E-6 低风险 0.51
CDM_260906-044406-153306-768522
GXIBA-1 (67685)
2026-09-06T
04:44:40+0000
1.978 km
极远距离
2.601726E-6 低风险 0.43